Weather History for GMME - March, 2013

Change the Weather History Date:

Wednesday, March 6, 2013

  Actual Average Record
Temperature  
Mean Temperature 61 °F -  
Max Temperature 66 °F 66 °F 84 °F (2001)
Min Temperature 56 °F 48 °F 41 °F (2005)
Degree Days  
Heating Degree Days 4    
Growing Degree Days 11 (Base 50)    
Moisture  
Dew Point 58 °F    
Average Humidity 86    
Maximum Humidity 94    
Minimum Humidity 77    
Precipitation  
Precipitation 0.08 in 0.08 in - ()
Sea Level Pressure  
Sea Level Pressure 29.78 in    
Wind  
Wind Speed 18 mph ()    
Max Wind Speed 25 mph    
Max Gust Speed 40 mph    
Visibility 3.2 miles    
Events Rain    
Averages and records for this station are not official NWS values.
T = Trace of Precipitation, MM = Missing Value Source: Averaged Metar Reports

Daily Weather History Graph

Daily Weather History Graph

Search for Another Location

Airport or City:

Trip Planner

Search our weather history database for the weather conditions in past years. The results will help you decide how hot, cold, wet, or windy it might be!

Date:

Astronomy

Mar. 06, 2013 Rise Set
Actual Time 6:49 AM WET 6:27 PM WET
Civil Twilight 6:24 AM WET 6:52 PM WET
Nautical Twilight 5:55 AM WET 7:21 PM WET
Astronomical Twilight 5:26 AM WET 7:50 PM WET
Moon 2:34 AM WET (3/6) 1:05 PM WET (3/6)
Length of Visible Light 12h 28m
Length of Day
11h 38m
Waning Crescent, 32% of the Moon is Illuminated
Mar 6
Waning Crescent
Mar 11
New
Mar 19
First Quarter
Mar 27
Full
Apr 3
Last Quarter

Hourly Weather History & Observations

Time (WET) Temp. Dew Point Humidity Pressure Visibility Wind Dir Wind Speed Gust Speed Precip Events Conditions
12:00 AM 60 °F 56 °F 83% 29.59 in 4 mi SW 20.7 mph - -   Partly Cloudy
12:00 AM 60.8 °F 55.4 °F 82% 29.56 in 3.7 mi SW 20.7 mph - N/A   Mostly Cloudy
1:00 AM 60.8 °F 55.4 °F 82% 29.59 in 3.7 mi SW 24.2 mph - N/A   Mostly Cloudy
2:00 AM 59.0 °F 57.2 °F 94% 29.59 in 3.7 mi SW 21.9 mph - N/A   Mostly Cloudy
2:30 AM 59.0 °F 57.2 °F 94% 29.62 in 3.7 mi SW 25.3 mph 38.0 mph N/A   Mostly Cloudy
3:00 AM 57 °F 54 °F 88% 29.64 in 4 mi SW 21.9 mph - - Rain Light Rain
3:00 AM 57.2 °F 55.4 °F 94% 29.62 in 3.7 mi SW 21.9 mph - N/A Rain Light Rain
3:30 AM 57.2 °F 55.4 °F 94% 29.62 in 3.7 mi SW 21.9 mph - N/A Rain Light Rain
4:00 AM 59.0 °F 55.4 °F 88% 29.62 in 3.7 mi SW 25.3 mph - N/A   Overcast
4:30 AM 59.0 °F 55.4 °F 88% 29.65 in 3.7 mi SW 24.2 mph - N/A   Overcast
5:00 AM 59.0 °F 53.6 °F 82% 29.65 in 3.7 mi SW 21.9 mph 33.4 mph N/A   Overcast
6:00 AM 59 °F 54 °F 79% 29.69 in 4 mi SW 18.4 mph - -   Partly Cloudy
6:00 AM 59.0 °F 53.6 °F 82% 29.68 in 3.7 mi SW 18.4 mph - N/A   Mostly Cloudy
6:30 AM 59.0 °F 55.4 °F 88% 29.68 in 3.7 mi SW 16.1 mph - N/A   Mostly Cloudy
7:00 AM 59.0 °F 55.4 °F 88% 29.71 in 3.7 mi SW 17.3 mph - N/A   Mostly Cloudy
7:30 AM 60.8 °F 55.4 °F 82% 29.71 in 3.7 mi SW 18.4 mph - N/A   Mostly Cloudy
8:00 AM 60.8 °F 55.4 °F 82% 29.74 in 3.7 mi SW 18.4 mph - N/A   Mostly Cloudy
8:30 AM 60.8 °F 55.4 °F 82% 29.74 in 3.7 mi SW 17.3 mph - N/A   Mostly Cloudy
9:00 AM 61 °F 56 °F 80% 29.76 in 4 mi SW 18.4 mph - -   Partly Cloudy
9:00 AM 60.8 °F 55.4 °F 82% 29.74 in 3.7 mi SW 18.4 mph - N/A   Mostly Cloudy
9:30 AM 62.6 °F 57.2 °F 82% 29.77 in 3.7 mi SW 21.9 mph 33.4 mph N/A   Mostly Cloudy
10:00 AM 64.4 °F 57.2 °F 77% 29.77 in 3.7 mi SW 21.9 mph - N/A   Mostly Cloudy
10:30 AM 64.4 °F 57.2 °F 77% 29.80 in 3.7 mi SW 19.6 mph - N/A   Mostly Cloudy
10:54 AM 62.6 °F 59.0 °F 88% 29.80 in 1.9 mi SW 17.3 mph - N/A Rain Rain
11:00 AM 62.6 °F 59.0 °F 88% 29.80 in 1.9 mi SW 16.1 mph - N/A Rain Rain
11:30 AM 60.8 °F 59.0 °F 94% 29.80 in 1.9 mi SSW 13.8 mph - N/A Rain Rain
12:00 PM 62 °F 60 °F 90% 29.80 in 2 mi SW 15.0 mph - - Rain Rain
12:00 PM 60.8 °F 59.0 °F 94% 29.80 in 1.9 mi SW 13.8 mph - N/A Rain Rain
12:30 PM 62.6 °F 59.0 °F 88% 29.77 in 1.9 mi SW 17.3 mph - N/A Rain Rain
1:00 PM 62.6 °F 60.8 °F 94% 29.77 in 1.9 mi SW 18.4 mph - N/A Rain Rain
1:20 PM 62.6 °F 60.8 °F 94% 29.77 in 3.7 mi SW 17.3 mph - N/A   Mostly Cloudy
1:30 PM 64.4 °F 60.8 °F 88% 29.77 in 3.7 mi SW 18.4 mph - N/A   Mostly Cloudy
2:00 PM 66.2 °F 60.8 °F 83% 29.77 in 3.1 mi WSW 24.2 mph - N/A   Mostly Cloudy
2:30 PM 64.4 °F 59.0 °F 83% 29.80 in 3.1 mi WSW 25.3 mph 40.3 mph N/A   Mostly Cloudy
3:00 PM 65 °F 60 °F 80% 29.81 in 3 mi WSW 25.3 mph - -   Overcast
3:00 PM 64.4 °F 60.8 °F 88% 29.80 in 3.1 mi WSW 25.3 mph 36.8 mph N/A   Mostly Cloudy
3:30 PM 64.4 °F 59.0 °F 83% 29.80 in - WSW 21.9 mph - N/A   Unknown
4:00 PM 64.4 °F 60.8 °F 88% 29.83 in 3.1 mi WSW 23.0 mph 36.8 mph N/A   Mostly Cloudy
4:30 PM 64.4 °F 59.0 °F 83% 29.83 in 3.1 mi WSW 21.9 mph 35.7 mph N/A   Mostly Cloudy
5:00 PM 64.4 °F 59.0 °F 83% 29.83 in 3.1 mi WSW 20.7 mph 32.2 mph N/A   Mostly Cloudy
5:30 PM 64.4 °F 59.0 °F 83% 29.86 in 3.1 mi WSW 19.6 mph - N/A   Mostly Cloudy
6:00 PM 63 °F 58 °F 80% 29.86 in 3 mi WSW 18.4 mph - -   Mostly Cloudy
6:00 PM 62.6 °F 59.0 °F 88% 29.86 in 3.1 mi WSW 18.4 mph - N/A   Mostly Cloudy
6:30 PM 62.6 °F 59.0 °F 88% 29.89 in 3.1 mi WSW 17.3 mph - N/A   Mostly Cloudy
7:00 PM 62.6 °F 59.0 °F 88% 29.89 in 3.1 mi WSW 16.1 mph - N/A   Mostly Cloudy
7:30 PM 64.4 °F 59.0 °F 83% 29.89 in 3.1 mi WSW 16.1 mph - N/A   Mostly Cloudy
8:00 PM 64.4 °F 59.0 °F 83% 29.92 in 3.1 mi WSW 12.7 mph - N/A   Mostly Cloudy
8:30 PM 62.6 °F 59.0 °F 88% 29.92 in 3.1 mi SW 10.4 mph - N/A   Mostly Cloudy
9:00 PM 63 °F 59 °F 83% 29.94 in 3 mi SW 9.2 mph - -   Mostly Cloudy
9:00 PM 62.6 °F 59.0 °F 88% 29.92 in 3.1 mi SW 9.2 mph - N/A   Mostly Cloudy
9:30 PM 64.4 °F 59.0 °F 83% 29.95 in 3.1 mi SW 10.4 mph - N/A   Mostly Cloudy
10:00 PM 64.4 °F 59.0 °F 83% 29.95 in 3.1 mi SW 13.8 mph - N/A   Mostly Cloudy
10:30 PM 64.4 °F 59.0 °F 83% 29.95 in 3.1 mi SW 15.0 mph - N/A   Scattered Clouds
11:00 PM 64.4 °F 59.0 °F 83% 29.92 in 3.1 mi SW 13.8 mph - N/A   Scattered Clouds
11:30 PM 64.4 °F 59.0 °F 83% 29.92 in 3.1 mi SSW 13.8 mph - N/A   Scattered Clouds